Location: Seattle
(47.6064°N, 122.3308°W)
Time: 01:20:46
(UTC-08:00)

A-11 Canister half - Pass Details

Date: 30 November 2020
Orbit: 1524 x 1684 km, 47.3° (Epoch: 27 January)

Event Time Altitude Azimuth Distance (km) Brightness Sun altitude
Rises 08:24:10 0° 268° (W) 4,932 11.2 5.6°
Reaches altitude 10° 08:27:21 10° 268° (W) 3,935 10.7 6.0°
Maximum altitude 08:37:30 89° 183° (S) 1,651 9.4 7.3°
Drops below altitude 10° 08:47:20 10° 93° (E) 3,824 11.9 8.5°
Sets 08:50:23 0° 93° (E) 4,788 12.4 8.8°
